Location: Newark
(41.9364°N, 2.8061°E)
Time: 01:39:50
(UTC+00:00)

X-37B - Visible Passes

Search period start: 05 October 2022 00:00
Search period end: 15 October 2022 00:00
Orbit: 329 x 342 km, 45.0° (Epoch: 29 September)

Date Brightness Start Highest point End Pass type
(mag) Time Alt. Az. Time Alt. Az. Time Alt. Az.
05 Oct 1.2 04:49:24 23° WSW 04:50:39 34° SSW 04:53:18 10° SE visible
06 Oct 3.4 03:38:08 14° ESE 03:38:08 14° ESE 03:38:35 10° ESE visible
06 Oct 2.4 05:09:23 11° WSW 05:10:51 15° SW 05:12:33 10° S visible
07 Oct 3.1 03:58:14 14° SE 03:58:14 14° SE 03:58:44 10° SE visible
